Location: College Park
(38.9810°N, 76.9370°W)
Time: 05:01:21
(UTC-05:00)

Tiangong 2 - Pass Details

Date: 13 February 2018
Orbit: 384 x 388 km, 42.8° (Epoch: 19 February)

Event Time Altitude Azimuth Distance (km) Brightness Sun altitude
Rises 18:46:03 0° 258° (WSW) 2,258 7.0 -12.8°
Reaches altitude 10° 18:48:08 10° 262° (W) 1,405 5.4 -13.2°
Maximum altitude 18:51:17 63° 344° (NNW) 434 1.3 -13.8°
Enters shadow 18:52:46 27° 58° (ENE) 769 2.1 -14.1°
